Aviation Digital Data Service (ADDS)

Output produced by METARs form (1102 UTC 13 December 2017)
found at http://www.aviationweather.gov/adds/metars/
 
LGAD 131050Z 20006KT 9999 FEW018 SCT025 19/11 Q1023
TAF LGAD 130800Z 1309/1318 22008KT 9999 FEW025 
     TEMPO 1309/1318 SCT015
       
LGAL 131050Z 21008KT 9999 FEW018 16/12 Q1018
TAF LGAL 130800Z 1309/1318 23008KT 9999 FEW020
       
LGAV 131050Z 26009KT 9999 FEW030 20/08 Q1021 NOSIG
TAF LGAV 130500Z 1306/1406 27005KT 9999 FEW030 
     BECMG 1307/1309 27015KT
       
LGBL 131050Z 10003KT CAVOK 20/09 Q1019
TAF LGBL 131100Z 1312/1321 28010KT 9999 FEW025
       
LGEL 131050Z 27007KT 9999 FEW070 20/08 Q1020
TAF LGEL 130500Z 1306/1406 29005KT 9999 FEW030 
     PROB30 1306/1308 5000 BR SCT010 
     BECMG 1307/1309 29015KT
       
LGHI 131050Z 16005KT 9999 FEW025 19/12 Q1019
TAF LGHI 130800Z 1309/1318 22008KT 9999 FEW020
       
LGIO 131050Z /////KT 4000 BR SCT004 SCT020 10/10 Q1023
TAF AMD LGIO 130929Z 1309/1318 21008KT 0200 FG BKN002 BKN020 
     BECMG 1311/1313 3000 BR SCT008 BKN020 
     BECMG 1314/1316 6000 FEW010 SCT025 
     PROB30 
     TEMPO 1309/1315 3000 RA
       
LGIR 131050Z 30012KT 9999 FEW025 19/13 Q1022 NOSIG
TAF LGIR 130500Z 1306/1406 21005KT 9999 FEW020 
     TEMPO 1309/1315 31015KT SCT020
       
LGKC 131050Z /////KT 9999 FEW010 BKN025 15/12 Q1023
TAF LGKC 130800Z 1309/1318 28015KT 9999 FEW012 SCT025 
     TEMPO 1309/1318 28015G25KT
       
LGKF 131050Z 20004KT 9999 SCT018 18/14 Q1023
TAF LGKF 130800Z 1309/1318 21008KT 9999 FEW015 SCT020 
     PROB30 
     TEMPO 1309/1312 5000 BR SCT010 BKN020
       
LGKL 131050Z 34004KT 9999 FEW025 19/10 Q1023
TAF AMD LGKL 130858Z 1309/1318 02008KT 8000 SCT030 
     TEMPO 1309/1312 4000 RA BR SCT012 BKN025 
     BECMG 1310/1312 30008KT
       
LGKO 131050Z 29008KT 9999 FEW016 SCT025 17/14 Q1020
TAF LGKO 130500Z 1306/1406 29010KT 9999 FEW015 SCT050
       
LGKP 131050Z 30017KT 9999 FEW030 SCT035 19/13 Q1021
TAF LGKP 130800Z 1309/1318 31015KT 9999 FEW015 BKN030 
     TEMPO 1309/1315 31015G25KT
       
LGKR 131050Z 16010KT 9999 FEW008 SCT014 BKN025 18/15 Q1022 NOSIG
TAF LGKR 130500Z 1306/1406 14010KT 8000 FEW008 SCT015 BKN070 
     PROB40 
     TEMPO 1306/1324 5000 RA BR SCT008 BKN015 OVC070 
     BECMG 1313/1315 17010G20KT 
     BECMG 1316/1318 21010KT 
     PROB30 
     TEMPO 1318/1324 3000 TSRA BKN008 FEW018CB OVC070
       
LGKV 131050Z 22004KT CAVOK 14/08 Q1018
TAF LGKV 130800Z 1309/1318 25008KT 9999 FEW025
       
LGKZ 131050Z 00000KT 9999 SCT070 14/04 Q1020
LGLM 131050Z 19009KT CAVOK 18/12 Q1019
TAF LGLM 130800Z 1309/1318 23010KT 9999 FEW025
       
TAF LGLR 131100Z 1312/1321 VRB03KT 9999 FEW030
       
LGMK 131050Z 29007KT 9999 FEW018 18/12 Q1020
TAF LGMK 130800Z 1309/1318 26012KT 9999 FEW018
       
LGMT 131050Z 17008KT 130V220 9999 FEW018 18/12 Q1021
TAF LGMT 130800Z 1309/1318 17008KT 9999 FEW018 SCT040
       
LGNX 130850Z 21005KT 9999 FEW020 18/13 Q1022
LGPA 131050Z AUTO VRB03KT //// // ////// 18/12 Q1021 RE//
LGPZ 131050Z 07004KT 9999 FEW025 16/14 Q1024 RMK SCT180 BLU
TAF LGPZ 130500Z 1306/1406 14010KT 9999 SCT025 SCT080 
     BECMG 1319/1321 SCT025 BKN080 
     PROB40 
     TEMPO 1321/1406 6000 RA 
     PROB40 
     TEMPO 1321/1403 3000 TSRA FEW016CB BKN020 BKN080
       
LGRP 131050Z 27015KT 9999 FEW015 19/14 Q1019 NOSIG
TAF LGRP 130500Z 1306/1406 28010KT 9999 FEW015 SCT050 
     TEMPO 1306/1318 29010G20KT
       
LGRX 131050Z VRB03KT 9999 SCT025 18/12 Q1023 RMK FEW200 BLU
TAF LGRX 131100Z 1312/1321 20008KT 9999 SCT030
       
LGSA 131050Z 27022KT 9999 FEW025 19/14 Q1022
TAF LGSA 130500Z 1306/1406 30005KT 9999 FEW020 
     TEMPO 1309/1315 29015KT SCT020
       
LGSK 131050Z 23007KT CAVOK 19/09 Q1018
TAF LGSK 130800Z 1309/1318 25010KT 9999 FEW025
       
LGSM 131050Z 17004KT 9999 FEW018 18/13 Q1021
TAF LGSM 130800Z 1309/1318 VRB03KT 9999 FEW018
       
LGSO 131050Z 25011KT 9999 FEW020 17/11 Q1021
LGSR 131050Z 26015KT 9999 SCT025 19/12 Q1021
TAF LGSR 130500Z 1306/1406 27014KT 9999 FEW020 
     BECMG 1322/1324 27018G28KT
       
TAF LGST 130800Z 1309/1318 29012KT 9999 FEW025 
     TEMPO 1309/1318 FEW018 SCT025
       
TAF LGSY 131100Z 1312/1321 20012KT 9999 FEW025
       
TAF LGTG 131100Z 1312/1321 23010KT 9999 FEW025
       
TAF LGTL 131100Z 1312/1321 01008KT 9999 FEW020
       
LGTS 131050Z 29004KT 8000 NSC 12/08 Q1019 NOSIG
TAF LGTS 130500Z 1306/1406 VRB03KT 4000 BR SCT008 
     TEMPO 1306/1308 0500 FG BKN005 
     BECMG 1308/1310 9999 FEW030 
     BECMG 1320/1322 FEW015 SCT030 
     PROB30 
     TEMPO 1322/1402 7000 RA FEW010 BKN025 
     BECMG 1402/1404 34010KT FEW030
       
LGZA 131050Z VRB03KT 9999 FEW020 17/12 Q1023
TAF LGZA 130800Z 1309/1318 25010KT 9999 FEW015 SCT020 
     PROB30 
     TEMPO 1309/1312 5000 BR SCT010 BKN020
       
LGPZ 131050Z 07004KT 9999 FEW025 16/14 Q1024 RMK SCT180 BLU
TAF LGPZ 130500Z 1306/1406 14010KT 9999 SCT025 SCT080 
     BECMG 1319/1321 SCT025 BKN080 
     PROB40 
     TEMPO 1321/1406 6000 RA 
     PROB40 
     TEMPO 1321/1403 3000 TSRA FEW016CB BKN020 BKN080
       
LGKC 131050Z /////KT 9999 FEW010 BKN025 15/12 Q1023
TAF LGKC 130800Z 1309/1318 28015KT 9999 FEW012 SCT025 
     TEMPO 1309/1318 28015G25KT
       
LGKF 131050Z 20004KT 9999 SCT018 18/14 Q1023
TAF LGKF 130800Z 1309/1318 21008KT 9999 FEW015 SCT020 
     PROB30 
     TEMPO 1309/1312 5000 BR SCT010 BKN020
       
LGKL 131050Z 34004KT 9999 FEW025 19/10 Q1023
TAF AMD LGKL 130858Z 1309/1318 02008KT 8000 SCT030 
     TEMPO 1309/1312 4000 RA BR SCT012 BKN025 
     BECMG 1310/1312 30008KT
       
LGKO 131050Z 29008KT 9999 FEW016 SCT025 17/14 Q1020
TAF LGKO 130500Z 1306/1406 29010KT 9999 FEW015 SCT050
       
LGKP 131050Z 30017KT 9999 FEW030 SCT035 19/13 Q1021
TAF LGKP 130800Z 1309/1318 31015KT 9999 FEW015 BKN030 
     TEMPO 1309/1315 31015G25KT
       
LGKR 131050Z 16010KT 9999 FEW008 SCT014 BKN025 18/15 Q1022 NOSIG
TAF LGKR 130500Z 1306/1406 14010KT 8000 FEW008 SCT015 BKN070 
     PROB40 
     TEMPO 1306/1324 5000 RA BR SCT008 BKN015 OVC070 
     BECMG 1313/1315 17010G20KT 
     BECMG 1316/1318 21010KT 
     PROB30 
     TEMPO 1318/1324 3000 TSRA BKN008 FEW018CB OVC070
       
LGKV 131050Z 22004KT CAVOK 14/08 Q1018
TAF LGKV 130800Z 1309/1318 25008KT 9999 FEW025
       
LGKZ 131050Z 00000KT 9999 SCT070 14/04 Q1020
LGAD 131050Z 20006KT 9999 FEW018 SCT025 19/11 Q1023
TAF LGAD 130800Z 1309/1318 22008KT 9999 FEW025 
     TEMPO 1309/1318 SCT015
       
LGRX 131050Z VRB03KT 9999 SCT025 18/12 Q1023 RMK FEW200 BLU
TAF LGRX 131100Z 1312/1321 20008KT 9999 SCT030
       
LGHI 131050Z 16005KT 9999 FEW025 19/12 Q1019
TAF LGHI 130800Z 1309/1318 22008KT 9999 FEW020
       
LGRP 131050Z 27015KT 9999 FEW015 19/14 Q1019 NOSIG
TAF LGRP 130500Z 1306/1406 28010KT 9999 FEW015 SCT050 
     TEMPO 1306/1318 29010G20KT
       
LGAL 131050Z 21008KT 9999 FEW018 16/12 Q1018
TAF LGAL 130800Z 1309/1318 23008KT 9999 FEW020
       
LGEL 131050Z 27007KT 9999 FEW070 20/08 Q1020
TAF LGEL 130500Z 1306/1406 29005KT 9999 FEW030 
     PROB30 1306/1308 5000 BR SCT010 
     BECMG 1307/1309 29015KT
       
LGAV 131050Z 26009KT 9999 FEW030 20/08 Q1021 NOSIG
TAF LGAV 130500Z 1306/1406 27005KT 9999 FEW030 
     BECMG 1307/1309 27015KT
       
LGKZ 131050Z 00000KT 9999 SCT070 14/04 Q1020
LGIO 131050Z /////KT 4000 BR SCT004 SCT020 10/10 Q1023
TAF AMD LGIO 130929Z 1309/1318 21008KT 0200 FG BKN002 BKN020 
     BECMG 1311/1313 3000 BR SCT008 BKN020 
     BECMG 1314/1316 6000 FEW010 SCT025 
     PROB30 
     TEMPO 1309/1315 3000 RA
       
LGKR 131050Z 16010KT 9999 FEW008 SCT014 BKN025 18/15 Q1022 NOSIG
TAF LGKR 130500Z 1306/1406 14010KT 8000 FEW008 SCT015 BKN070 
     PROB40 
     TEMPO 1306/1324 5000 RA BR SCT008 BKN015 OVC070 
     BECMG 1313/1315 17010G20KT 
     BECMG 1316/1318 21010KT 
     PROB30 
     TEMPO 1318/1324 3000 TSRA BKN008 FEW018CB OVC070
       
LGKL 131050Z 34004KT 9999 FEW025 19/10 Q1023
TAF AMD LGKL 130858Z 1309/1318 02008KT 8000 SCT030 
     TEMPO 1309/1312 4000 RA BR SCT012 BKN025 
     BECMG 1310/1312 30008KT
       
LGKP 131050Z 30017KT 9999 FEW030 SCT035 19/13 Q1021
TAF LGKP 130800Z 1309/1318 31015KT 9999 FEW015 BKN030 
     TEMPO 1309/1315 31015G25KT
       
TAF LGTL 131100Z 1312/1321 01008KT 9999 FEW020
       
LGKF 131050Z 20004KT 9999 SCT018 18/14 Q1023
TAF LGKF 130800Z 1309/1318 21008KT 9999 FEW015 SCT020 
     PROB30 
     TEMPO 1309/1312 5000 BR SCT010 BKN020
       
LGKC 131050Z /////KT 9999 FEW010 BKN025 15/12 Q1023
TAF LGKC 130800Z 1309/1318 28015KT 9999 FEW012 SCT025 
     TEMPO 1309/1318 28015G25KT
       
LGKO 131050Z 29008KT 9999 FEW016 SCT025 17/14 Q1020
TAF LGKO 130500Z 1306/1406 29010KT 9999 FEW015 SCT050
       
TAF LGLR 131100Z 1312/1321 VRB03KT 9999 FEW030
       
LGLM 131050Z 19009KT CAVOK 18/12 Q1019
TAF LGLM 130800Z 1309/1318 23010KT 9999 FEW025
       
LGTS 131050Z 29004KT 8000 NSC 12/08 Q1019 NOSIG
TAF LGTS 130500Z 1306/1406 VRB03KT 4000 BR SCT008 
     TEMPO 1306/1308 0500 FG BKN005 
     BECMG 1308/1310 9999 FEW030 
     BECMG 1320/1322 FEW015 SCT030 
     PROB30 
     TEMPO 1322/1402 7000 RA FEW010 BKN025 
     BECMG 1402/1404 34010KT FEW030
       
LGKV 131050Z 22004KT CAVOK 14/08 Q1018
TAF LGKV 130800Z 1309/1318 25008KT 9999 FEW025
       
LGMK 131050Z 29007KT 9999 FEW018 18/12 Q1020
TAF LGMK 130800Z 1309/1318 26012KT 9999 FEW018
       
LGMT 131050Z 17008KT 130V220 9999 FEW018 18/12 Q1021
TAF LGMT 130800Z 1309/1318 17008KT 9999 FEW018 SCT040
       
LGBL 131050Z 10003KT CAVOK 20/09 Q1019
TAF LGBL 131100Z 1312/1321 28010KT 9999 FEW025
       
LGIR 131050Z 30012KT 9999 FEW025 19/13 Q1022 NOSIG
TAF LGIR 130500Z 1306/1406 21005KT 9999 FEW020 
     TEMPO 1309/1315 31015KT SCT020
       
LGAD 131050Z 20006KT 9999 FEW018 SCT025 19/11 Q1023
TAF LGAD 130800Z 1309/1318 22008KT 9999 FEW025 
     TEMPO 1309/1318 SCT015
       
LGAL 131050Z 21008KT 9999 FEW018 16/12 Q1018
TAF LGAL 130800Z 1309/1318 23008KT 9999 FEW020
       
LGAV 131050Z 26009KT 9999 FEW030 20/08 Q1021 NOSIG
TAF LGAV 130500Z 1306/1406 27005KT 9999 FEW030 
     BECMG 1307/1309 27015KT
       
LGBL 131050Z 10003KT CAVOK 20/09 Q1019
TAF LGBL 131100Z 1312/1321 28010KT 9999 FEW025
       
LGEL 131050Z 27007KT 9999 FEW070 20/08 Q1020
TAF LGEL 130500Z 1306/1406 29005KT 9999 FEW030 
     PROB30 1306/1308 5000 BR SCT010 
     BECMG 1307/1309 29015KT
       
LGHI 131050Z 16005KT 9999 FEW025 19/12 Q1019
TAF LGHI 130800Z 1309/1318 22008KT 9999 FEW020
       
LGIO 131050Z /////KT 4000 BR SCT004 SCT020 10/10 Q1023
TAF AMD LGIO 130929Z 1309/1318 21008KT 0200 FG BKN002 BKN020 
     BECMG 1311/1313 3000 BR SCT008 BKN020 
     BECMG 1314/1316 6000 FEW010 SCT025 
     PROB30 
     TEMPO 1309/1315 3000 RA
       
LGIR 131050Z 30012KT 9999 FEW025 19/13 Q1022 NOSIG
TAF LGIR 130500Z 1306/1406 21005KT 9999 FEW020 
     TEMPO 1309/1315 31015KT SCT020
       
LGKC 131050Z /////KT 9999 FEW010 BKN025 15/12 Q1023
TAF LGKC 130800Z 1309/1318 28015KT 9999 FEW012 SCT025 
     TEMPO 1309/1318 28015G25KT
       
LGKF 131050Z 20004KT 9999 SCT018 18/14 Q1023
TAF LGKF 130800Z 1309/1318 21008KT 9999 FEW015 SCT020 
     PROB30 
     TEMPO 1309/1312 5000 BR SCT010 BKN020
       
LGKL 131050Z 34004KT 9999 FEW025 19/10 Q1023
TAF AMD LGKL 130858Z 1309/1318 02008KT 8000 SCT030 
     TEMPO 1309/1312 4000 RA BR SCT012 BKN025 
     BECMG 1310/1312 30008KT
       
LGKO 131050Z 29008KT 9999 FEW016 SCT025 17/14 Q1020
TAF LGKO 130500Z 1306/1406 29010KT 9999 FEW015 SCT050
       
LGKP 131050Z 30017KT 9999 FEW030 SCT035 19/13 Q1021
TAF LGKP 130800Z 1309/1318 31015KT 9999 FEW015 BKN030 
     TEMPO 1309/1315 31015G25KT
       
LGKR 131050Z 16010KT 9999 FEW008 SCT014 BKN025 18/15 Q1022 NOSIG
TAF LGKR 130500Z 1306/1406 14010KT 8000 FEW008 SCT015 BKN070 
     PROB40 
     TEMPO 1306/1324 5000 RA BR SCT008 BKN015 OVC070 
     BECMG 1313/1315 17010G20KT 
     BECMG 1316/1318 21010KT 
     PROB30 
     TEMPO 1318/1324 3000 TSRA BKN008 FEW018CB OVC070
       
LGKV 131050Z 22004KT CAVOK 14/08 Q1018
TAF LGKV 130800Z 1309/1318 25008KT 9999 FEW025
       
LGKZ 131050Z 00000KT 9999 SCT070 14/04 Q1020
LGLM 131050Z 19009KT CAVOK 18/12 Q1019
TAF LGLM 130800Z 1309/1318 23010KT 9999 FEW025
       
TAF LGLR 131100Z 1312/1321 VRB03KT 9999 FEW030
       
LGMK 131050Z 29007KT 9999 FEW018 18/12 Q1020
TAF LGMK 130800Z 1309/1318 26012KT 9999 FEW018
       
LGMT 131050Z 17008KT 130V220 9999 FEW018 18/12 Q1021
TAF LGMT 130800Z 1309/1318 17008KT 9999 FEW018 SCT040
       
LGNX 130850Z 21005KT 9999 FEW020 18/13 Q1022
LGPA 131050Z AUTO VRB03KT //// // ////// 18/12 Q1021 RE//
LGPZ 131050Z 07004KT 9999 FEW025 16/14 Q1024 RMK SCT180 BLU
TAF LGPZ 130500Z 1306/1406 14010KT 9999 SCT025 SCT080 
     BECMG 1319/1321 SCT025 BKN080 
     PROB40 
     TEMPO 1321/1406 6000 RA 
     PROB40 
     TEMPO 1321/1403 3000 TSRA FEW016CB BKN020 BKN080
       
LGRP 131050Z 27015KT 9999 FEW015 19/14 Q1019 NOSIG
TAF LGRP 130500Z 1306/1406 28010KT 9999 FEW015 SCT050 
     TEMPO 1306/1318 29010G20KT
       
LGRX 131050Z VRB03KT 9999 SCT025 18/12 Q1023 RMK FEW200 BLU
TAF LGRX 131100Z 1312/1321 20008KT 9999 SCT030
       
LGSA 131050Z 27022KT 9999 FEW025 19/14 Q1022
TAF LGSA 130500Z 1306/1406 30005KT 9999 FEW020 
     TEMPO 1309/1315 29015KT SCT020
       
LGSK 131050Z 23007KT CAVOK 19/09 Q1018
TAF LGSK 130800Z 1309/1318 25010KT 9999 FEW025
       
LGSM 131050Z 17004KT 9999 FEW018 18/13 Q1021
TAF LGSM 130800Z 1309/1318 VRB03KT 9999 FEW018
       
LGSO 131050Z 25011KT 9999 FEW020 17/11 Q1021
LGSR 131050Z 26015KT 9999 SCT025 19/12 Q1021
TAF LGSR 130500Z 1306/1406 27014KT 9999 FEW020 
     BECMG 1322/1324 27018G28KT
       
TAF LGST 130800Z 1309/1318 29012KT 9999 FEW025 
     TEMPO 1309/1318 FEW018 SCT025
       
TAF LGSY 131100Z 1312/1321 20012KT 9999 FEW025
       
TAF LGTG 131100Z 1312/1321 23010KT 9999 FEW025
       
TAF LGTL 131100Z 1312/1321 01008KT 9999 FEW020
       
LGTS 131050Z 29004KT 8000 NSC 12/08 Q1019 NOSIG
TAF LGTS 130500Z 1306/1406 VRB03KT 4000 BR SCT008 
     TEMPO 1306/1308 0500 FG BKN005 
     BECMG 1308/1310 9999 FEW030 
     BECMG 1320/1322 FEW015 SCT030 
     PROB30 
     TEMPO 1322/1402 7000 RA FEW010 BKN025 
     BECMG 1402/1404 34010KT FEW030
       
LGZA 131050Z VRB03KT 9999 FEW020 17/12 Q1023
TAF LGZA 130800Z 1309/1318 25010KT 9999 FEW015 SCT020 
     PROB30 
     TEMPO 1309/1312 5000 BR SCT010 BKN020
       
LGAD 131050Z 20006KT 9999 FEW018 SCT025 19/11 Q1023
TAF LGAD 130800Z 1309/1318 22008KT 9999 FEW025 
     TEMPO 1309/1318 SCT015
       
LGAL 131050Z 21008KT 9999 FEW018 16/12 Q1018
TAF LGAL 130800Z 1309/1318 23008KT 9999 FEW020
       
LGAV 131050Z 26009KT 9999 FEW030 20/08 Q1021 NOSIG
TAF LGAV 130500Z 1306/1406 27005KT 9999 FEW030 
     BECMG 1307/1309 27015KT
       
LGBL 131050Z 10003KT CAVOK 20/09 Q1019
TAF LGBL 131100Z 1312/1321 28010KT 9999 FEW025
       
LGEL 131050Z 27007KT 9999 FEW070 20/08 Q1020
TAF LGEL 130500Z 1306/1406 29005KT 9999 FEW030 
     PROB30 1306/1308 5000 BR SCT010 
     BECMG 1307/1309 29015KT
       
LGHI 131050Z 16005KT 9999 FEW025 19/12 Q1019
TAF LGHI 130800Z 1309/1318 22008KT 9999 FEW020
       
LGIO 131050Z /////KT 4000 BR SCT004 SCT020 10/10 Q1023
TAF AMD LGIO 130929Z 1309/1318 21008KT 0200 FG BKN002 BKN020 
     BECMG 1311/1313 3000 BR SCT008 BKN020 
     BECMG 1314/1316 6000 FEW010 SCT025 
     PROB30 
     TEMPO 1309/1315 3000 RA
       
LGIR 131050Z 30012KT 9999 FEW025 19/13 Q1022 NOSIG
TAF LGIR 130500Z 1306/1406 21005KT 9999 FEW020 
     TEMPO 1309/1315 31015KT SCT020
       
LGKC 131050Z /////KT 9999 FEW010 BKN025 15/12 Q1023
TAF LGKC 130800Z 1309/1318 28015KT 9999 FEW012 SCT025 
     TEMPO 1309/1318 28015G25KT
       
LGKF 131050Z 20004KT 9999 SCT018 18/14 Q1023
TAF LGKF 130800Z 1309/1318 21008KT 9999 FEW015 SCT020 
     PROB30 
     TEMPO 1309/1312 5000 BR SCT010 BKN020
       
LGKL 131050Z 34004KT 9999 FEW025 19/10 Q1023
TAF AMD LGKL 130858Z 1309/1318 02008KT 8000 SCT030 
     TEMPO 1309/1312 4000 RA BR SCT012 BKN025 
     BECMG 1310/1312 30008KT
       
LGKO 131050Z 29008KT 9999 FEW016 SCT025 17/14 Q1020
TAF LGKO 130500Z 1306/1406 29010KT 9999 FEW015 SCT050
       
LGKP 131050Z 30017KT 9999 FEW030 SCT035 19/13 Q1021
TAF LGKP 130800Z 1309/1318 31015KT 9999 FEW015 BKN030 
     TEMPO 1309/1315 31015G25KT
       
LGKR 131050Z 16010KT 9999 FEW008 SCT014 BKN025 18/15 Q1022 NOSIG
TAF LGKR 130500Z 1306/1406 14010KT 8000 FEW008 SCT015 BKN070 
     PROB40 
     TEMPO 1306/1324 5000 RA BR SCT008 BKN015 OVC070 
     BECMG 1313/1315 17010G20KT 
     BECMG 1316/1318 21010KT 
     PROB30 
     TEMPO 1318/1324 3000 TSRA BKN008 FEW018CB OVC070
       
LGKV 131050Z 22004KT CAVOK 14/08 Q1018
TAF LGKV 130800Z 1309/1318 25008KT 9999 FEW025
       
LGKZ 131050Z 00000KT 9999 SCT070 14/04 Q1020
LGLM 131050Z 19009KT CAVOK 18/12 Q1019
TAF LGLM 130800Z 1309/1318 23010KT 9999 FEW025
       
TAF LGLR 131100Z 1312/1321 VRB03KT 9999 FEW030
       
LGMK 131050Z 29007KT 9999 FEW018 18/12 Q1020
TAF LGMK 130800Z 1309/1318 26012KT 9999 FEW018
       
LGMT 131050Z 17008KT 130V220 9999 FEW018 18/12 Q1021
TAF LGMT 130800Z 1309/1318 17008KT 9999 FEW018 SCT040
       
LGNX 130850Z 21005KT 9999 FEW020 18/13 Q1022
LGPA 131050Z AUTO VRB03KT //// // ////// 18/12 Q1021 RE//
LGPZ 131050Z 07004KT 9999 FEW025 16/14 Q1024 RMK SCT180 BLU
TAF LGPZ 130500Z 1306/1406 14010KT 9999 SCT025 SCT080 
     BECMG 1319/1321 SCT025 BKN080 
     PROB40 
     TEMPO 1321/1406 6000 RA 
     PROB40 
     TEMPO 1321/1403 3000 TSRA FEW016CB BKN020 BKN080
       
LGRP 131050Z 27015KT 9999 FEW015 19/14 Q1019 NOSIG
TAF LGRP 130500Z 1306/1406 28010KT 9999 FEW015 SCT050 
     TEMPO 1306/1318 29010G20KT
       
LGRX 131050Z VRB03KT 9999 SCT025 18/12 Q1023 RMK FEW200 BLU
TAF LGRX 131100Z 1312/1321 20008KT 9999 SCT030
       
LGSA 131050Z 27022KT 9999 FEW025 19/14 Q1022
TAF LGSA 130500Z 1306/1406 30005KT 9999 FEW020 
     TEMPO 1309/1315 29015KT SCT020
       
LGSK 131050Z 23007KT CAVOK 19/09 Q1018
TAF LGSK 130800Z 1309/1318 25010KT 9999 FEW025
       
LGSM 131050Z 17004KT 9999 FEW018 18/13 Q1021
TAF LGSM 130800Z 1309/1318 VRB03KT 9999 FEW018
       
LGSO 131050Z 25011KT 9999 FEW020 17/11 Q1021
LGSR 131050Z 26015KT 9999 SCT025 19/12 Q1021
TAF LGSR 130500Z 1306/1406 27014KT 9999 FEW020 
     BECMG 1322/1324 27018G28KT
       
TAF LGST 130800Z 1309/1318 29012KT 9999 FEW025 
     TEMPO 1309/1318 FEW018 SCT025
       
TAF LGSY 131100Z 1312/1321 20012KT 9999 FEW025
       
TAF LGTG 131100Z 1312/1321 23010KT 9999 FEW025
       
TAF LGTL 131100Z 1312/1321 01008KT 9999 FEW020
       
LGTS 131050Z 29004KT 8000 NSC 12/08 Q1019 NOSIG
TAF LGTS 130500Z 1306/1406 VRB03KT 4000 BR SCT008 
     TEMPO 1306/1308 0500 FG BKN005 
     BECMG 1308/1310 9999 FEW030 
     BECMG 1320/1322 FEW015 SCT030 
     PROB30 
     TEMPO 1322/1402 7000 RA FEW010 BKN025 
     BECMG 1402/1404 34010KT FEW030
       
LGZA 131050Z VRB03KT 9999 FEW020 17/12 Q1023
TAF LGZA 130800Z 1309/1318 25010KT 9999 FEW015 SCT020 
     PROB30 
     TEMPO 1309/1312 5000 BR SCT010 BKN020
       
LGSM 131050Z 17004KT 9999 FEW018 18/13 Q1021
TAF LGSM 130800Z 1309/1318 VRB03KT 9999 FEW018
       
LGSR 131050Z 26015KT 9999 SCT025 19/12 Q1021
TAF LGSR 130500Z 1306/1406 27014KT 9999 FEW020 
     BECMG 1322/1324 27018G28KT
       
LGSK 131050Z 23007KT CAVOK 19/09 Q1018
TAF LGSK 130800Z 1309/1318 25010KT 9999 FEW025
       
TAF LGSY 131100Z 1312/1321 20012KT 9999 FEW025
       
LGSA 131050Z 27022KT 9999 FEW025 19/14 Q1022
TAF LGSA 130500Z 1306/1406 30005KT 9999 FEW020 
     TEMPO 1309/1315 29015KT SCT020
       
LGSO 131050Z 25011KT 9999 FEW020 17/11 Q1021
TAF LGTG 131100Z 1312/1321 23010KT 9999 FEW025
       
LGAD 131050Z 20006KT 9999 FEW018 SCT025 19/11 Q1023
TAF LGAD 130800Z 1309/1318 22008KT 9999 FEW025 
     TEMPO 1309/1318 SCT015
       
LGAL 131050Z 21008KT 9999 FEW018 16/12 Q1018
TAF LGAL 130800Z 1309/1318 23008KT 9999 FEW020
       
LGAV 131050Z 26009KT 9999 FEW030 20/08 Q1021 NOSIG
TAF LGAV 130500Z 1306/1406 27005KT 9999 FEW030 
     BECMG 1307/1309 27015KT
       
LGBL 131050Z 10003KT CAVOK 20/09 Q1019
TAF LGBL 131100Z 1312/1321 28010KT 9999 FEW025
       
LGEL 131050Z 27007KT 9999 FEW070 20/08 Q1020
TAF LGEL 130500Z 1306/1406 29005KT 9999 FEW030 
     PROB30 1306/1308 5000 BR SCT010 
     BECMG 1307/1309 29015KT
       
LGHI 131050Z 16005KT 9999 FEW025 19/12 Q1019
TAF LGHI 130800Z 1309/1318 22008KT 9999 FEW020
       
LGIO 131050Z /////KT 4000 BR SCT004 SCT020 10/10 Q1023
TAF AMD LGIO 130929Z 1309/1318 21008KT 0200 FG BKN002 BKN020 
     BECMG 1311/1313 3000 BR SCT008 BKN020 
     BECMG 1314/1316 6000 FEW010 SCT025 
     PROB30 
     TEMPO 1309/1315 3000 RA
       
LGIR 131050Z 30012KT 9999 FEW025 19/13 Q1022 NOSIG
TAF LGIR 130500Z 1306/1406 21005KT 9999 FEW020 
     TEMPO 1309/1315 31015KT SCT020
       
LGKC 131050Z /////KT 9999 FEW010 BKN025 15/12 Q1023
TAF LGKC 130800Z 1309/1318 28015KT 9999 FEW012 SCT025 
     TEMPO 1309/1318 28015G25KT
       
LGKF 131050Z 20004KT 9999 SCT018 18/14 Q1023
TAF LGKF 130800Z 1309/1318 21008KT 9999 FEW015 SCT020 
     PROB30 
     TEMPO 1309/1312 5000 BR SCT010 BKN020
       
LGKL 131050Z 34004KT 9999 FEW025 19/10 Q1023
TAF AMD LGKL 130858Z 1309/1318 02008KT 8000 SCT030 
     TEMPO 1309/1312 4000 RA BR SCT012 BKN025 
     BECMG 1310/1312 30008KT
       
LGKO 131050Z 29008KT 9999 FEW016 SCT025 17/14 Q1020
TAF LGKO 130500Z 1306/1406 29010KT 9999 FEW015 SCT050
       
LGKP 131050Z 30017KT 9999 FEW030 SCT035 19/13 Q1021
TAF LGKP 130800Z 1309/1318 31015KT 9999 FEW015 BKN030 
     TEMPO 1309/1315 31015G25KT
       
LGKR 131050Z 16010KT 9999 FEW008 SCT014 BKN025 18/15 Q1022 NOSIG
TAF LGKR 130500Z 1306/1406 14010KT 8000 FEW008 SCT015 BKN070 
     PROB40 
     TEMPO 1306/1324 5000 RA BR SCT008 BKN015 OVC070 
     BECMG 1313/1315 17010G20KT 
     BECMG 1316/1318 21010KT 
     PROB30 
     TEMPO 1318/1324 3000 TSRA BKN008 FEW018CB OVC070
       
LGKV 131050Z 22004KT CAVOK 14/08 Q1018
TAF LGKV 130800Z 1309/1318 25008KT 9999 FEW025
       
LGKZ 131050Z 00000KT 9999 SCT070 14/04 Q1020
LGLM 131050Z 19009KT CAVOK 18/12 Q1019
TAF LGLM 130800Z 1309/1318 23010KT 9999 FEW025
       
TAF LGLR 131100Z 1312/1321 VRB03KT 9999 FEW030
       
LGMK 131050Z 29007KT 9999 FEW018 18/12 Q1020
TAF LGMK 130800Z 1309/1318 26012KT 9999 FEW018
       
LGMT 131050Z 17008KT 130V220 9999 FEW018 18/12 Q1021
TAF LGMT 130800Z 1309/1318 17008KT 9999 FEW018 SCT040
       
LGNX 130850Z 21005KT 9999 FEW020 18/13 Q1022
LGPA 131050Z AUTO VRB03KT //// // ////// 18/12 Q1021 RE//
LGPZ 131050Z 07004KT 9999 FEW025 16/14 Q1024 RMK SCT180 BLU
TAF LGPZ 130500Z 1306/1406 14010KT 9999 SCT025 SCT080 
     BECMG 1319/1321 SCT025 BKN080 
     PROB40 
     TEMPO 1321/1406 6000 RA 
     PROB40 
     TEMPO 1321/1403 3000 TSRA FEW016CB BKN020 BKN080
       
LGRP 131050Z 27015KT 9999 FEW015 19/14 Q1019 NOSIG
TAF LGRP 130500Z 1306/1406 28010KT 9999 FEW015 SCT050 
     TEMPO 1306/1318 29010G20KT
       
LGRX 131050Z VRB03KT 9999 SCT025 18/12 Q1023 RMK FEW200 BLU
TAF LGRX 131100Z 1312/1321 20008KT 9999 SCT030
       
LGSA 131050Z 27022KT 9999 FEW025 19/14 Q1022
TAF LGSA 130500Z 1306/1406 30005KT 9999 FEW020 
     TEMPO 1309/1315 29015KT SCT020
       
LGSK 131050Z 23007KT CAVOK 19/09 Q1018
TAF LGSK 130800Z 1309/1318 25010KT 9999 FEW025
       
LGSM 131050Z 17004KT 9999 FEW018 18/13 Q1021
TAF LGSM 130800Z 1309/1318 VRB03KT 9999 FEW018
       
LGSO 131050Z 25011KT 9999 FEW020 17/11 Q1021
LGSR 131050Z 26015KT 9999 SCT025 19/12 Q1021
TAF LGSR 130500Z 1306/1406 27014KT 9999 FEW020 
     BECMG 1322/1324 27018G28KT
       
TAF LGST 130800Z 1309/1318 29012KT 9999 FEW025 
     TEMPO 1309/1318 FEW018 SCT025
       
TAF LGSY 131100Z 1312/1321 20012KT 9999 FEW025
       
TAF LGTG 131100Z 1312/1321 23010KT 9999 FEW025
       
TAF LGTL 131100Z 1312/1321 01008KT 9999 FEW020
       
LGTS 131050Z 29004KT 8000 NSC 12/08 Q1019 NOSIG
TAF LGTS 130500Z 1306/1406 VRB03KT 4000 BR SCT008 
     TEMPO 1306/1308 0500 FG BKN005 
     BECMG 1308/1310 9999 FEW030 
     BECMG 1320/1322 FEW015 SCT030 
     PROB30 
     TEMPO 1322/1402 7000 RA FEW010 BKN025 
     BECMG 1402/1404 34010KT FEW030
       
LGZA 131050Z VRB03KT 9999 FEW020 17/12 Q1023
TAF LGZA 130800Z 1309/1318 25010KT 9999 FEW015 SCT020 
     PROB30 
     TEMPO 1309/1312 5000 BR SCT010 BKN020
       
LGZA 131050Z VRB03KT 9999 FEW020 17/12 Q1023
TAF LGZA 130800Z 1309/1318 25010KT 9999 FEW015 SCT020 
     PROB30 
     TEMPO 1309/1312 5000 BR SCT010 BKN020